Theta_e
330 324 326 321 311 309 306 306 313 314 319 325 326 325 323 330 322 321 346 351 353 354 355 354 350 352 352 353 353 353 354 355 356 356 356 356 356 356 356 356 357 358 357 355 353 352 351 349 348
327 322 322 318 307 303 305 310 310 318 325 330 330 332 329 329 340 340 343 348 352 352 355 354 349 350 351 352 352 353 353 353 354 355 355 355 356 356 355 355 355 357 356 353 352 353 352 349 347
322 320 316 312 308 303 306 310 314 322 330 330 326 333 333 334 340 340 347 349 349 350 352 351 348 349 350 351 351 351 352 351 352 353 353 353 354 354 354 354 355 355 353 353 353 354 354 349 346
321 320 316 307 304 308 308 311 315 324 324 329 329 328 336 336 337 345 347 346 346 347 350 344 343 347 350 351 350 350 350 350 350 351 351 352 353 354 354 353 354 354 353 353 353 354 351 348 345
322 317 307 305 305 308 311 313 317 321 321 325 330 327 331 328 332 343 344 344 344 345 347 346 341 345 346 348 348 349 348 348 350 351 351 350 351 351 351 351 351 352 353 353 353 353 349 346 345
314 315 304 302 304 308 312 314 322 320 322 325 326 328 330 327 330 337 339 340 343 342 344 347 341 342 342 343 343 344 345 346 347 349 350 350 351 350 350 349 349 349 351 352 353 352 351 348 346
311 309 304 304 303 306 310 316 322 319 321 322 330 324 328 323 332 335 336 337 338 339 342 345 348 342 337 337 337 338 340 342 343 344 345 346 347 349 350 349 349 348 349 348 349 349 349 349 347
313 310 304 305 303 304 311 313 323 320 319 330 331 322 326 330 329 331 332 333 333 334 336 339 344 348 348 344 334 334 334 336 338 339 342 340 344 345 346 347 347 348 348 348 347 347 347 347 346
311 304 302 303 303 306 311 310 315 324 319 324 324 324 331 329 326 329 329 329 328 327 330 333 336 340 344 344 337 335 333 333 336 338 336 341 346 347 347 338 340 341 342 343 344 345 344 343 343
307 303 302 307 308 307 310 311 313 315 318 318 320 324 331 327 324 328 329 327 327 325 325 328 331 334 336 337 342 342 340 340 340 342 341 341 339 338 336 334 334 334 336 336 339 340 342 343 349
306 302 306 307 308 309 308 309 314 313 314 319 319 323 326 326 325 327 331 328 325 324 323 325 328 330 331 333 335 336 338 337 334 336 337 335 332 329 331 330 331 336 334 341 343 343 346 346 346
302 305 307 307 308 308 308 310 310 313 315 320 322 326 327 327 327 330 328 322 320 321 321 322 324 327 328 328 328 329 329 330 329 328 332 334 330 325 324 324 324 326 327 328 327 332 337 340 339
304 305 306 308 308 308 309 308 308 311 316 317 320 324 326 328 329 330 326 321 320 319 320 322 324 325 325 326 325 325 324 323 323 323 324 329 330 327 325 323 323 321 322 325 329 330 329 333 331
305 305 305 306 306 307 305 307 308 310 315 316 320 322 326 327 328 325 321 318 318 318 320 322 322 324 324 323 323 321 320 319 318 318 318 320 322 324 325 325 325 325 325 326 326 325 326 328 328
305 302 304 305 306 305 307 303 304 311 314 315 317 321 324 326 325 322 319 317 317 318 319 321 321 322 321 320 319 318 316 316 315 314 314 315 317 317 319 319 319 318 319 320 322 321 323 323 323
301 303 298 303 304 305 306 298 306 312 312 313 316 318 320 322 322 321 319 317 316 316 318 318 317 319 318 317 317 315 314 313 312 312 312 312 313 314 315 315 314 315 315 316 316 316 316 317 317
301 297 298 300 305 304 304 300 306 311 310 310 313 316 318 320 319 319 317 316 315 316 317 317 318 317 316 316 315 314 313 312 311 311 311 311 310 312 313 312 312 314 314 314 313 314 314 314 314
298 297 299 298 302 302 301 301 305 308 309 310 312 314 317 318 318 318 316 315 314 314 316 317 317 316 315 314 313 312 310 310 310 308 308 308 308 308 310 309 310 311 311 310 310 311 312 313 311
301 298 297 300 302 299 300 301 303 306 307 308 310 312 314 316 319 318 315 313 312 313 313 315 315 315 314 312 311 311 309 308 306 306 305 306 306 307 307 307 307 308 308 308 309 310 309 310 311
299 296 297 301 302 299 299 300 304 305 305 307 308 310 312 315 316 315 313 311 311 311 312 313 314 314 313 313 313 311 309 307 306 305 305 305 305 305 305 306 306 306 307 307 307 308 307 308 308
298 297 298 297 300 301 299 298 302 305 305 306 307 309 311 313 314 314 311 311 311 311 311 311 312 313 313 312 310 308 307 305 304 303 303 303 304 304 305 305 306 306 306 305 306 305 305 305 307
295 302 297 296 296 293 299 291 300 304 303 303 304 306 308 310 313 314 311 310 310 310 311 311 310 311 311 311 309 308 307 304 303 303 303 302 303 303 304 304 304 304 304 304 303 304 304 305 303
296 299 298 298 296 296 296 292 299 301 300 302 304 305 308 310 312 314 312 311 311 310 309 309 308 309 310 310 310 309 307 304 302 302 301 301 302 302 302 303 303 303 303 302 302 302 302 303 302
300 297 297 296 295 288 294 294 296 300 300 301 305 305 307 309 311 313 313 312 310 310 308 307 307 307 308 309 309 308 305 302 301 301 300 300 301 301 301 301 302 302 302 301 301 301 300 300 300
297 294 289 287 286 287 295 293 296 302 302 303 303 306 309 310 311 311 310 309 308 307 306 305 305 304 306 306 306 305 303 303 302 301 299 298 298 299 299 300 300 300 300 299 299 299 298 298 297
296 295 288 282 284 289 292 289 296 302 304 305 306 307 308 309 310 310 310 309 308 306 304 304 303 302 303 303 303 303 303 302 301 300 299 297 298 297 298 299 299 298 298 298 297 297 297 297 297
294 291 297 288 290 285 290 296 300 302 303 304 305 306 308 308 309 309 310 309 308 305 303 302 302 300 301 301 301 301 301 300 299 299 298 296 296 296 297 297 297 296 295 295 295 294 293 294 294
296 297 288 290 281 281 288 290 292 297 298 301 302 303 305 308 307 307 308 307 307 305 303 302 302 300 300 300 300 299 299 299 299 297 295 295 294 295 296 296 295 294 293 293 292 291 291 291 291
293 291 291 291 289 283 282 287 299 298 300 300 302 304 305 306 308 307 307 307 305 303 301 301 300 299 299 299 299 299 298 298 296 294 293 292 293 294 294 293 292 291 290 291 290 290 289 289 289
294 292 292 286 285 287 286 286 300 300 300 299 300 302 304 306 307 307 306 304 302 302 300 299 299 299 298 299 297 298 297 296 293 292 291 291 292 293 293 291 290 289 288 289 288 287 288 287 287
Wind_Speed
10 4 4 6 8 6 4 7 2 9 9 4 13 3 6 12 1 5 5 8 10 11 12 12 9 9 8 9 7 7 8 9 9 9 10 10 10 10 9 9 8 7 8 8 8 7 8 7 6
8 5 6 3 8 9 7 7 11 10 10 10 9 8 6 6 8 10 9 9 11 10 9 11 9 9 9 8 9 8 9 9 9 8 8 9 8 8 8 8 7 6 7 7 7 6 7 7 6
8 5 6 4 6 10 2 10 10 8 13 13 8 2 3 7 6 6 11 10 11 11 10 9 8 9 10 10 9 9 9 9 8 8 8 7 7 7 7 6 6 7 7 7 7 6 7 6 5
4 5 5 8 9 2 3 7 11 15 8 9 8 8 8 4 2 6 11 10 11 10 11 10 11 10 10 10 10 9 9 8 7 7 7 6 7 7 7 6 7 7 7 6 6 6 6 6 6
4 4 7 9 8 3 4 3 13 16 13 12 13 8 7 4 4 8 10 9 10 10 10 11 10 11 12 12 11 9 9 8 7 6 6 6 6 6 6 5 5 5 5 5 5 6 6 6 6
6 4 8 9 9 6 5 5 15 12 9 11 8 11 7 5 8 9 10 9 8 9 8 10 12 12 11 11 10 10 9 9 8 6 5 4 5 5 4 4 5 5 5 5 6 7 6 7 7
12 7 10 7 8 8 6 8 14 13 12 12 6 10 6 8 7 9 10 10 9 9 8 7 9 12 13 11 10 10 9 9 9 8 7 5 4 3 4 5 4 5 5 5 5 5 4 5 7
6 6 6 7 8 8 4 10 14 11 10 7 7 8 6 13 12 11 10 10 10 8 8 7 7 6 7 9 12 13 12 11 10 10 7 6 6 4 5 3 2 1 4 4 5 5 5 6 5
3 7 9 7 8 2 6 11 7 6 7 9 7 3 3 22 15 13 12 10 9 7 7 6 6 6 6 7 8 12 10 8 6 9 8 5 4 2 9 12 10 8 4 2 2 3 3 4 7
8 7 6 4 4 5 4 9 11 10 14 12 10 5 16 20 16 16 14 12 10 9 8 6 6 6 6 5 5 6 6 6 5 6 7 5 6 7 8 9 8 10 6 6 5 3 3 6 4
4 10 3 7 6 6 5 7 10 17 19 17 18 16 20 20 17 15 14 12 10 8 7 7 6 5 4 5 3 3 3 3 5 7 6 6 5 5 4 3 3 3 6 2 2 2 2 4 4
10 10 10 10 2 7 9 5 11 16 12 10 10 18 20 20 19 18 14 12 11 10 7 7 7 6 5 4 4 4 4 4 4 6 5 4 4 5 4 4 4 4 4 5 5 4 5 4 4
13 12 8 10 11 11 10 14 12 12 12 5 10 18 20 19 19 16 14 12 11 10 8 7 7 6 7 6 5 5 5 5 6 6 7 4 4 4 4 4 3 3 3 3 2 2 3 4 5
3 9 12 10 13 11 13 16 8 14 7 9 15 19 19 20 19 16 14 13 12 10 9 8 8 7 8 8 7 6 5 6 6 6 7 7 5 3 3 3 3 3 4 4 4 4 4 4 4
9 13 14 16 15 12 10 19 17 16 12 14 15 17 18 19 19 18 15 13 12 10 10 9 9 8 8 9 7 6 6 6 6 6 8 8 6 5 4 4 4 4 4 4 3 3 3 4 4
11 11 12 4 7 13 12 20 18 17 14 16 18 17 18 20 20 16 15 13 12 11 11 10 8 9 9 8 7 6 7 6 6 5 6 7 7 6 5 4 5 5 4 4 4 4 5 4 5
11 13 11 10 8 10 14 14 10 12 14 17 17 17 18 18 19 17 15 14 13 12 12 12 11 11 11 9 8 8 8 6 6 5 5 7 7 6 5 5 5 4 3 4 4 4 5 5 5
13 12 10 12 3 10 18 21 14 9 14 17 18 19 19 20 23 19 17 15 13 12 12 12 11 12 11 9 8 7 7 6 5 6 6 6 6 7 5 5 5 4 4 5 5 5 5 4 6
13 14 15 13 9 13 18 21 17 15 16 17 17 17 19 22 19 17 16 14 14 14 14 14 13 12 10 9 8 7 7 6 6 6 7 6 6 6 5 4 5 4 5 6 6 5 6 5 8
15 17 18 16 14 14 20 26 20 20 21 20 21 21 21 22 20 19 19 18 16 16 15 15 14 14 10 7 5 6 7 6 6 5 6 6 7 6 6 5 5 6 4 7 8 8 5 4 6
17 19 17 17 15 17 21 30 25 22 25 22 22 23 24 25 27 24 23 22 19 18 17 15 15 15 11 9 7 7 8 7 6 6 6 6 7 7 7 7 6 6 6 6 7 8 8 5 4
18 13 12 14 13 12 5 18 14 13 12 15 21 23 25 25 25 24 24 23 22 19 16 15 14 14 12 12 10 12 8 8 6 5 6 6 7 7 7 8 8 8 6 7 6 6 6 6 5
12 6 10 12 14 16 15 13 1 3 7 14 17 20 22 23 22 22 23 22 20 18 16 14 13 14 13 13 11 9 8 9 8 7 8 7 7 7 7 7 7 7 6 6 6 6 6 5 4
6 7 9 8 9 11 15 13 20 6 13 16 5 9 15 19 21 20 19 19 19 17 16 15 16 14 13 12 12 11 12 12 10 9 7 6 5 5 6 6 6 6 6 6 5 6 7 6 6
8 7 6 9 8 8 2 11 16 18 13 10 12 19 11 13 15 16 20 21 21 21 18 16 16 15 14 14 12 12 13 12 13 11 7 7 6 5 5 5 5 5 6 6 5 5 6 7 7
9 13 8 9 8 5 2 11 7 5 8 7 8 10 11 5 8 14 18 19 20 20 19 18 17 16 14 14 13 12 13 9 9 9 8 6 5 5 6 6 6 6 5 5 5 4 5 6 6
4 9 12 8 7 5 10 21 20 8 10 13 10 16 12 9 7 11 14 17 18 19 19 18 18 16 15 14 13 13 11 12 11 12 10 7 7 6 6 6 7 6 6 5 6 5 6 6 6
8 2 1 4 5 8 9 11 10 13 11 15 18 18 17 12 7 8 12 16 16 17 17 18 18 17 16 15 13 12 12 12 12 11 10 9 8 7 7 7 7 6 6 6 5 5 6 7 6
4 7 7 9 6 5 12 11 12 10 14 15 19 18 15 15 10 7 10 12 15 17 18 17 17 18 17 16 14 14 13 13 12 11 10 9 8 8 7 8 7 7 6 6 6 7 7 7 7
10 10 7 4 8 5 6 10 15 13 17 20 19 19 21 21 12 9 11 13 15 18 18 18 17 16 16 15 15 15 14 13 11 11 11 9 8 8 8 8 8 7 7 6 6 6 7 7 8
Wind_Direction
269 283 262 236 241 239 197 173 13 155 166 89 147 195 166 6 37 34 101 89 119 116 127 119 123 130 123 121 107 88 87 98 107 116 123 128 135 138 140 141 144 147 152 150 140 132 124 122 120
309 288 231 264 255 233 173 141 183 161 121 140 127 136 158 88 66 110 120 109 119 121 124 123 129 128 123 118 107 100 96 93 95 104 114 120 127 133 137 140 148 150 156 156 149 148 141 141 142
279 284 266 258 252 254 296 181 164 142 148 162 143 323 132 100 75 100 109 125 117 107 104 94 100 119 118 116 113 109 106 101 100 100 110 116 124 133 140 148 157 163 168 165 164 163 158 150 153
282 198 205 249 238 233 276 173 165 153 176 196 178 147 109 47 38 106 128 128 117 110 107 85 95 94 98 106 106 110 108 110 113 113 120 132 142 152 156 168 176 178 181 181 173 155 159 164 168
233 237 241 256 252 280 233 224 193 180 171 177 190 150 112 77 105 139 139 138 125 115 111 95 79 91 93 95 100 102 107 115 121 128 136 145 160 169 170 182 194 200 203 203 195 175 169 178 185
219 271 232 236 214 225 228 214 193 188 177 160 200 148 115 119 159 149 141 131 129 122 118 111 92 89 84 88 89 90 95 102 105 110 124 142 174 170 179 190 208 222 228 232 235 215 196 199 213
269 246 266 269 260 229 227 200 196 189 186 180 120 170 103 164 163 145 134 130 121 114 114 111 113 107 87 74 76 77 79 88 85 82 88 90 92 114 173 187 210 222 234 239 255 262 248 236 238
284 273 248 229 238 235 154 193 204 201 194 80 172 187 174 172 166 149 143 131 119 113 109 112 114 120 123 108 79 78 77 71 78 70 79 101 120 122 122 149 74 238 227 240 251 255 257 259 252
254 253 262 254 241 209 169 200 198 184 176 200 178 287 36 143 155 156 152 144 130 115 104 105 111 115 119 117 115 116 100 95 121 107 60 114 67 35 92 66 66 61 51 16 270 257 262 270 254
234 248 279 324 297 270 229 224 186 201 194 197 185 128 130 150 163 168 170 158 153 142 131 120 119 117 130 117 114 103 99 65 60 74 79 76 75 61 84 75 74 67 60 67 65 65 192 221 269
192 254 337 251 284 288 289 249 218 222 207 215 205 166 162 165 169 179 181 167 160 145 131 127 121 117 123 95 104 93 82 86 75 57 65 79 78 64 56 65 38 47 10 68 170 179 279 357 317
254 238 262 274 228 282 271 296 223 229 223 258 225 169 171 177 177 183 177 162 163 162 138 125 106 105 96 106 88 91 82 77 64 50 38 85 99 77 70 62 51 45 29 38 23 5 351 339 336
246 262 265 258 274 274 273 259 259 233 225 247 188 174 181 185 185 183 179 171 163 161 147 135 135 122 108 97 94 88 83 70 64 52 38 20 73 82 84 83 80 73 59 30 10 17 342 330 326
339 278 273 272 262 253 264 261 228 233 173 203 181 185 187 192 189 179 178 176 177 158 155 148 131 112 106 96 93 92 79 86 70 60 40 48 46 47 69 82 62 55 27 20 3 357 329 322 308
270 275 266 251 247 245 259 252 226 239 189 192 197 196 193 196 191 191 185 180 174 174 155 148 127 123 116 112 109 97 89 87 78 74 55 47 39 54 52 63 53 35 33 6 1 329 317 302 305
259 256 268 155 249 225 230 259 242 203 195 199 202 198 200 199 196 191 186 185 180 164 166 150 140 140 124 115 112 106 99 92 86 73 66 50 47 41 52 59 49 27 26 9 4 1 341 331 328
213 267 239 277 240 260 224 268 252 152 202 224 210 203 203 199 197 194 188 186 183 172 165 159 155 146 130 127 113 105 104 92 85 74 63 48 46 38 42 43 40 11 20 20 3 357 349 331 328
261 232 244 261 237 250 259 260 248 211 228 231 222 215 205 207 206 192 189 187 182 172 173 164 164 152 143 137 133 125 113 102 87 77 63 51 50 40 44 60 37 19 26 31 11 355 353 343 332
275 272 264 264 261 288 267 270 266 260 211 236 231 222 215 215 203 188 193 183 182 181 177 175 164 163 161 163 158 150 130 119 106 91 78 67 60 52 48 63 55 41 39 28 14 354 2 8 353
255 260 263 275 276 275 274 273 269 257 243 227 230 222 222 220 204 193 194 191 191 184 184 179 176 171 180 170 160 137 131 112 103 99 87 77 71 63 64 58 55 34 47 37 27 21 355 21 17
247 256 269 275 293 274 273 274 261 245 237 233 230 236 224 220 210 196 196 194 190 189 186 185 178 175 182 159 148 136 125 136 140 134 113 84 80 74 67 63 59 57 43 41 29 17 18 355 27
263 267 264 270 272 271 26 289 291 274 262 219 232 234 235 228 220 200 197 195 194 187 184 184 179 181 181 182 171 174 167 152 115 123 111 104 89 80 70 67 61 57 56 45 40 28 13 352 28
276 302 264 273 266 278 252 266 21 150 232 234 227 240 238 235 226 211 201 200 195 184 179 180 180 186 182 187 186 177 157 128 138 129 129 110 95 78 73 70 71 72 70 66 48 44 32 42 25
247 247 241 255 257 255 238 237 289 291 36 350 315 252 249 241 229 215 203 195 193 184 180 178 178 180 184 186 181 182 157 152 147 144 139 124 112 99 82 85 77 71 78 64 56 51 43 35 38
224 234 247 224 206 249 43 219 257 314 11 355 319 308 284 247 229 210 201 194 191 186 181 177 179 174 179 180 175 168 157 156 145 146 140 139 131 120 104 101 89 90 85 80 64 68 64 48 45
225 235 243 261 254 259 111 245 224 28 307 326 346 352 338 296 229 219 206 199 194 190 185 178 176 169 170 168 166 162 155 154 145 140 137 130 131 122 127 120 107 89 89 93 77 70 61 59 59
179 221 248 258 247 280 257 277 284 22 31 347 345 343 345 331 251 221 211 201 196 191 188 178 175 172 172 169 163 161 161 153 147 139 136 136 131 130 135 125 110 100 86 77 86 66 66 63 56
266 360 197 175 233 232 230 244 272 311 8 355 348 347 346 348 298 241 211 200 194 192 188 180 178 172 169 166 166 162 158 150 145 140 138 136 130 134 145 129 115 101 91 85 87 90 66 72 61
225 225 226 262 235 277 282 273 309 358 351 342 327 325 326 330 320 247 224 204 196 190 187 184 179 172 169 168 166 162 156 149 146 139 140 133 137 145 144 125 112 104 96 86 82 80 85 76 79
267 275 267 254 266 257 286 276 304 328 319 313 309 309 313 305 299 248 208 200 201 196 189 185 179 175 173 170 165 161 152 150 146 147 132 134 145 139 144 126 114 102 93 90 98 87 80 77 72